SCP
1 1 1 1 2 2 2 2 1 1 1 1 1 1 1 1 1 0 0 0 0 0
1 1 1 1 2 2 1 1 1 1 1 0 0 0 0 0 0 0 0 0 0 0
1 2 1 1 1 1 1 1 1 1 0 0 0 0 0 0 0 0 0 0 0 0
2 1 1 1 1 1 1 0 0 0 0 0 0 0 0 0 0 0 0 0 0 0
1 1 1 1 1 0 0 0 0 0 0 0 0 0 0 0 0 0 0 0 0 0
1 1 1 1 0 0 0 0 0 0 0 0 0 0 0 0 0 0 0 0 0 0
1 0 0 0 0 0 0 0 0 0 0 0 0 0 0 0 0 0 0 0 0 0
0 0 0 0 0 0 0 0 0 0 0 0 0 0 0 0 0 0 0 0 0 0
0 0 0 0 0 0 0 0 0 0 0 0 0 0 0 0 0 0 0 0 0 0
0 0 0 0 0 0 0 0 0 0 0 0 0 0 0 0 0 0 0 0 0 0
0 0 0 0 -0 0 0 0 0 0 0 0 0 0 0 0 0 -0 -0 0 -0 0
-0 -0 0 -0 0 0 0 0 0 0 0 0 0 0 0 0 -0 -0 -0 0 0 0
-0 -0 -0 -0 -0 0 0 0 0 0 0 0 0 0 -0 -0 0 0 -0 0 0 0
0 -0 -0 -0 0 0 0 0 -0 0 0 0 0 0 -0 -0 0 0 0 0 0 0
Wind_Speed_500mb
68 61 54 61 56 67 68 57 48 45 40 43 47 42 39 36 39 39 43 35 32 34
60 54 58 67 62 63 55 47 43 37 38 37 43 43 39 39 38 28 27 28 34 40
48 48 52 55 54 47 45 43 35 35 36 37 36 43 36 29 27 25 24 24 28 24
42 52 47 44 41 37 32 34 40 44 41 38 40 33 24 26 24 25 27 23 24 22
50 48 45 34 35 38 35 35 45 38 39 37 33 28 23 26 28 28 26 22 23 22
54 45 41 42 36 37 37 39 38 36 32 26 21 16 21 29 26 26 26 24 22 20
48 45 46 46 45 45 40 38 37 26 23 21 20 12 10 15 23 30 31 30 27 21
49 46 48 47 46 45 41 36 24 32 27 25 24 24 24 21 23 23 27 27 26 32
54 53 49 44 37 36 33 38 32 36 31 23 23 24 22 19 13 16 16 25 32 29
47 39 36 38 37 41 36 35 36 25 19 23 18 17 13 13 12 10 16 18 21 25
42 40 41 40 41 38 36 31 27 23 17 12 15 13 11 13 13 20 20 25 25 25
43 43 42 41 40 37 33 28 27 19 14 12 13 11 13 14 17 20 24 24 28 28
38 40 47 39 39 31 26 26 24 20 16 12 11 14 18 15 14 17 25 25 23 23
44 47 43 37 27 26 27 27 26 21 15 15 15 17 16 13 16 17 23 25 26 25
Wind_Direction_500mb
240 240 239 229 235 234 232 234 238 241 216 212 209 216 219 222 229 224 220 219 220 224
232 231 228 232 231 230 226 235 247 218 205 205 211 211 216 217 218 215 220 224 228 231
228 225 219 222 220 223 231 238 215 191 188 191 199 201 203 201 203 213 223 230 230 223
208 201 206 208 218 225 197 176 176 182 184 184 186 183 192 202 207 217 227 227 223 226
185 185 195 199 176 168 168 171 173 174 171 169 175 188 206 212 203 219 229 232 237 233
179 180 174 166 169 166 164 161 159 152 156 175 197 195 206 201 210 214 229 237 232 230
164 167 165 162 158 149 146 149 153 168 173 170 157 165 201 224 225 233 238 233 218 216
159 160 157 151 151 157 159 165 171 167 183 188 185 199 208 241 256 242 227 219 212 204
150 150 148 152 157 162 161 155 164 164 165 180 211 218 231 246 238 207 209 202 198 194
149 150 151 152 155 158 162 166 172 173 198 213 212 214 224 221 195 180 182 173 174 190
156 154 155 155 159 159 163 168 175 190 194 197 199 207 197 185 180 172 155 172 174 177
154 152 154 159 163 161 171 176 186 178 184 187 181 172 160 170 179 187 175 167 171 176
164 166 167 161 161 167 178 182 179 170 165 154 160 145 148 149 159 156 152 157 160 165
156 155 160 162 162 169 164 164 164 174 156 147 149 152 147 157 159 165 161 163 162 162
Wind_Speed_850mb
68 61 54 61 56 67 68 57 48 45 40 43 47 42 39 36 39 39 43 35 32 34
60 54 58 67 62 63 55 47 43 37 38 37 43 43 39 39 38 28 27 28 34 40
48 48 52 55 54 47 45 43 35 35 36 37 36 43 36 29 27 25 24 24 28 24
42 52 47 44 41 37 32 34 40 44 41 38 40 33 24 26 24 25 27 23 24 22
50 48 45 34 35 38 35 35 45 38 39 37 33 28 23 26 28 28 26 22 23 22
54 45 41 42 36 37 37 39 38 36 32 26 21 16 21 29 26 26 26 24 22 20
48 45 46 46 45 45 40 38 37 26 23 21 20 12 10 15 23 30 31 30 27 21
49 46 48 47 46 45 41 36 24 32 27 25 24 24 24 21 23 23 27 27 26 32
54 53 49 44 37 36 33 38 32 36 31 23 23 24 22 19 13 16 16 25 32 29
47 39 36 38 37 41 36 35 36 25 19 23 18 17 13 13 12 10 16 18 21 25
42 40 41 40 41 38 36 31 27 23 17 12 15 13 11 13 13 20 20 25 25 25
43 43 42 41 40 37 33 28 27 19 14 12 13 11 13 14 17 20 24 24 28 28
38 40 47 39 39 31 26 26 24 20 16 12 11 14 18 15 14 17 25 25 23 23
44 47 43 37 27 26 27 27 26 21 15 15 15 17 16 13 16 17 23 25 26 25
Wind_Direction_850mb
240 240 239 229 235 234 232 234 238 241 216 212 209 216 219 222 229 224 220 219 220 224
232 231 228 232 231 230 226 235 247 218 205 205 211 211 216 217 218 215 220 224 228 231
228 225 219 222 220 223 231 238 215 191 188 191 199 201 203 201 203 213 223 230 230 223
208 201 206 208 218 225 197 176 176 182 184 184 186 183 192 202 207 217 227 227 223 226
185 185 195 199 176 168 168 171 173 174 171 169 175 188 206 212 203 219 229 232 237 233
179 180 174 166 169 166 164 161 159 152 156 175 197 195 206 201 210 214 229 237 232 230
164 167 165 162 158 149 146 149 153 168 173 170 157 165 201 224 225 233 238 233 218 216
159 160 157 151 151 157 159 165 171 167 183 188 185 199 208 241 256 242 227 219 212 204
150 150 148 152 157 162 161 155 164 164 165 180 211 218 231 246 238 207 209 202 198 194
149 150 151 152 155 158 162 166 172 173 198 213 212 214 224 221 195 180 182 173 174 190
156 154 155 155 159 159 163 168 175 190 194 197 199 207 197 185 180 172 155 172 174 177
154 152 154 159 163 161 171 176 186 178 184 187 181 172 160 170 179 187 175 167 171 176
164 166 167 161 161 167 178 182 179 170 165 154 160 145 148 149 159 156 152 157 160 165
156 155 160 162 162 169 164 164 164 174 156 147 149 152 147 157 159 165 161 163 162 162